Temp
80 78 78 78 78 77 79 81 81 79 79 78 76 78 75 73 73 74 74 75 73 73
79 81 80 79 80 79 78 81 80 80 80 79 78 78 78 75 74 74 73 74 74 73
81 81 81 80 79 79 80 80 81 80 80 80 79 79 78 79 76 74 75 74 73 73
78 81 81 81 81 80 81 79 80 80 80 79 79 79 78 80 79 75 76 75 73 74
75 81 82 80 82 82 80 81 80 77 80 79 79 80 79 78 80 77 77 76 75 75
72 75 80 82 82 83 82 81 81 80 77 78 78 78 79 79 79 78 77 77 75 76
69 72 73 76 80 79 80 82 81 82 80 79 79 79 79 79 79 79 78 78 76 78
67 71 73 73 74 77 78 77 80 82 82 80 80 81 79 79 79 78 77 78 78 77
64 66 69 72 73 74 75 77 75 78 82 81 82 75 72 78 79 79 78 77 77 78
64 64 67 69 71 73 73 75 76 76 75 79 81 71 69 71 78 77 77 77 76 75
64 64 65 66 67 70 72 73 74 75 74 72 74 66 64 67 73 75 77 76 75 75
62 61 62 61 62 66 69 70 72 74 72 68 70 63 61 65 68 69 70 70 71 72
60 60 59 60 60 64 67 69 71 72 73 70 71 61 61 66 67 68 70 70 71 66
58 58 58 59 60 64 66 68 71 71 71 72 69 67 59 60 67 69 69 70 70 69
MSLP
1015.99 1016.22 1016.18 1016.03 1015.94 1016.08 1016.14 1016.04 1016.00 1016.03 1016.00 1016.16 1016.29 1016.24 1016.46 1016.89 1017.03 1017.08 1017.10 1017.22 1017.34 1017.44
1015.67 1015.67 1015.55 1015.35 1015.29 1015.31 1015.22 1015.34 1015.37 1015.37 1015.54 1015.64 1015.65 1015.76 1016.10 1016.31 1016.45 1016.58 1016.66 1016.75 1016.83 1016.93
1014.93 1014.72 1014.89 1015.12 1014.89 1014.52 1014.45 1014.49 1014.62 1014.82 1014.96 1015.05 1015.18 1015.34 1015.54 1015.70 1015.81 1016.02 1016.03 1016.09 1016.29 1016.34
1013.95 1013.50 1013.81 1014.13 1014.11 1014.06 1013.83 1013.75 1013.84 1013.93 1014.03 1014.27 1014.45 1014.67 1014.91 1014.96 1015.09 1015.37 1015.38 1015.41 1015.55 1015.59
1013.67 1012.67 1012.68 1012.90 1012.93 1013.13 1013.14 1012.97 1012.98 1013.07 1013.14 1013.20 1013.39 1013.65 1013.95 1014.12 1014.24 1014.57 1014.69 1014.79 1014.96 1014.90
1013.87 1013.23 1012.37 1012.15 1012.07 1012.10 1012.18 1012.20 1012.18 1012.26 1012.18 1012.22 1012.37 1012.62 1012.88 1013.09 1013.32 1013.51 1013.66 1013.86 1014.07 1014.06
1013.96 1013.50 1013.00 1012.34 1011.44 1011.27 1011.04 1011.08 1011.21 1011.32 1011.32 1011.14 1011.23 1011.51 1011.85 1012.17 1012.33 1012.58 1012.82 1013.03 1013.13 1013.17
1013.60 1013.14 1012.74 1012.18 1011.63 1010.96 1010.42 1010.19 1009.90 1009.97 1010.12 1010.22 1010.29 1010.35 1010.68 1011.13 1011.46 1011.66 1011.84 1012.04 1012.22 1012.31
1013.40 1012.88 1012.37 1011.92 1011.37 1010.61 1010.12 1009.45 1009.35 1009.08 1008.82 1008.66 1008.90 1009.01 1009.41 1009.81 1010.34 1010.78 1011.13 1011.28 1011.34 1011.37
1012.92 1012.46 1012.13 1011.54 1010.98 1010.17 1009.48 1008.95 1008.36 1007.80 1007.65 1007.56 1007.69 1007.68 1008.27 1008.88 1009.18 1009.33 1009.67 1010.10 1010.37 1010.59
1012.60 1012.06 1011.67 1011.43 1010.87 1010.02 1009.14 1008.44 1007.69 1006.97 1007.24 1007.42 1007.19 1008.62 1009.08 1009.23 1009.09 1009.23 1008.98 1009.14 1009.42 1009.49
1012.37 1011.88 1011.36 1010.81 1010.40 1009.68 1008.90 1007.99 1007.05 1006.34 1006.27 1006.58 1008.05 1007.77 1006.62 1008.66 1009.83 1009.58 1009.21 1009.17 1009.21 1009.26
1011.82 1011.40 1010.90 1010.36 1009.74 1008.96 1008.05 1007.31 1006.46 1005.70 1004.85 1004.56 1005.34 1006.11 1006.57 1006.75 1008.80 1008.83 1008.64 1008.09 1008.35 1008.75
1011.08 1010.61 1010.14 1009.59 1008.95 1008.15 1007.19 1006.44 1005.64 1005.21 1004.65 1004.31 1004.71 1005.60 1006.79 1007.73 1008.61 1007.17 1006.78 1007.46 1007.61 1007.53
Wind_Speed
13 9 9 11 9 7 8 10 12 11 10 10 8 8 6 4 5 5 5 7 5 4
11 14 13 14 12 9 8 9 11 12 12 12 11 10 9 6 7 6 6 6 6 5
15 15 16 13 14 13 11 11 11 12 13 13 13 12 11 10 8 8 7 5 6 6
16 18 15 16 16 15 13 11 13 13 15 14 13 13 12 13 12 10 10 9 7 8
14 14 16 17 18 16 15 13 13 12 14 14 15 15 14 15 14 13 13 12 9 10
9 13 15 18 18 18 16 16 14 13 13 14 14 14 15 16 15 15 13 12 11 11
7 8 9 13 16 16 16 17 16 16 15 14 14 14 15 15 16 15 14 13 13 14
7 8 9 10 10 13 14 15 18 18 17 15 14 12 15 14 15 15 15 14 14 13
7 7 10 11 12 11 13 17 16 18 19 19 13 16 18 17 14 14 14 14 14 14
7 7 8 11 12 14 13 13 18 18 19 19 18 17 18 20 14 14 14 15 13 11
6 7 6 10 13 15 11 13 14 16 11 6 11 7 10 13 13 13 13 13 14 14
6 7 10 11 11 15 14 13 14 12 11 11 9 11 13 1 6 7 9 6 6 8
10 10 11 12 13 14 14 14 12 12 12 10 7 15 15 6 8 20 10 7 11 10
12 12 12 14 13 14 14 14 14 11 10 12 13 11 17 18 12 14 7 7 6 8
Wind_Direction
228 226 232 230 222 207 219 219 218 220 220 221 216 220 211 208 223 228 231 245 228 216
239 240 237 235 228 223 207 218 223 221 219 223 220 219 220 220 219 215 222 228 235 229
248 236 239 243 239 231 227 212 215 217 223 225 225 222 218 229 229 221 230 221 220 229
264 232 230 236 238 238 231 214 214 215 218 222 222 222 221 227 230 224 234 230 218 231
336 250 235 233 235 234 235 232 217 212 215 217 218 219 218 221 225 224 231 232 233 235
328 346 265 243 239 236 236 237 236 221 212 211 215 215 218 220 223 222 222 224 223 229
316 315 310 295 259 243 236 235 236 240 230 219 212 211 214 219 222 225 226 226 227 232
292 306 302 302 293 264 248 236 237 233 234 227 220 213 211 214 220 224 226 226 228 229
284 291 303 298 293 286 277 256 236 235 234 231 223 219 207 209 216 220 226 229 231 236
273 274 292 300 304 295 287 277 253 236 232 234 235 211 203 208 220 215 219 227 226 231
280 285 294 308 303 297 285 284 272 254 230 248 268 314 283 238 224 243 239 224 226 229
285 288 294 293 292 291 288 288 280 264 231 226 222 127 19 322 270 274 258 258 257 250
297 284 284 287 290 284 279 279 275 262 249 247 168 140 176 149 280 285 244 226 238 223
283 280 278 280 279 279 280 274 268 250 230 208 192 186 170 186 219 210 229 238 216 207